Regional Weather Roundup
Issued by NWS

Home | Current Version | Previous Version | Text Only | Print | Product List | Glossary Off
Versions: 1 2 3 4 5 6 7 8 9 10 11 12 13 14 15 16 17 18 19 20 21 22 23 24 25 26 27 28 29 30 31 32 33 34 35 36 37 38 39 40 41 42 43 44 45 46 47 48 49 50

000
ASUS43 KLMK 021410
RWRKY
KENTUCKY REGIONAL WEATHER ROUNDUP
NATIONAL WEATHER SERVICE LOUISVILLE KY
1000 AM EDT SUN AUG 02 2015

NOTE "FAIR" INDICATES FEW OR NO CLOUDS BELOW 12,000 FEET
WITH NO SIGNIFICANT WEATHER AND/OR OBSTRUCTIONS TO VISIBILITY.

KYZ001>023-026-027-061>063-070>075-021500-
WESTERN AND SOUTH CENTRAL KENTUCKY

CITY           SKY/WX    TMP DP  RH WIND       PRES   REMARKS
PADUCAH        SUNNY     79  67  66 S5        29.99R
HENDERSON      SUNNY     77  66  69 S3        29.98S
OWENSBORO      SUNNY     76  66  71 S9        30.00S
HOPKINSVILLE   SUNNY     76  65  69 E5        30.00S
BOWLING GREEN  SUNNY     75  64  68 SE5       30.02R
GLASGOW        SUNNY    N/A N/A N/A E3        30.02S
$$

KYZ024-025-028>034-038-045-046-053-021500-
NORTH CENTRAL KENTUCKY

CITY           SKY/WX    TMP DP  RH WIND       PRES   REMARKS
LOUISVILLE/SDF MOSUNNY   77  61  57 SE3       30.00R
LOUISVILLE/LOU SUNNY     76  61  59 VRB5      30.01S
FORT KNOX      SUNNY     78  61  56 SE3       30.00R
$$

KYZ035>037-039>044-047>052-055>060-089>105-021500-
NORTHEAST KENTUCKY

CITY           SKY/WX    TMP DP  RH WIND       PRES   REMARKS
LEXINGTON      SUNNY     76  63  64 S6        30.03R
COVINGTON      SUNNY     77  60  55 SW3       30.01R
FRANKFORT      SUNNY     75  63  66 VRB3      30.01S
$$

KYZ054-064>069-076>088-106>120-021500-
SOUTHEAST KENTUCKY

CITY           SKY/WX    TMP DP  RH WIND       PRES   REMARKS
JACKSON        PTSUNNY   69  63  81 CALM      30.06R
LONDON         MOSUNNY   72  61  68 CALM      30.05R
SOMERSET       SUNNY     72  61  68 SE3       30.05S
MIDDLESBORO    CLOUDY    63  62  97 CALM      30.07S
MONTICELLO     SUNNY     76  65  68 CALM      30.06S
$$



USA.gov is the U.S. government's official web portal to all federal, state and local government web resources and services.